Regional Weather Roundup
Issued by NWS Cleveland, OH

Home | Current Version | Previous Version | Graphics & Text | Print | Product List | Glossary On
Versions: 1 2 3 4 5 6 7 8 9 10 11 12 13 14 15 16 17 18 19 20 21 22 23 24 25 26 27 28 29 30 31 32 33 34 35 36 37 38 39 40 41 42 43 44 45 46 47 48 49 50
000
ASUS41 KCLE 300600
RWRCLE
OHIO REGIONAL WEATHER ROUNDUP
NATIONAL WEATHER SERVICE WILMINGTON, OH
200 AM EDT MON MAR 30 2015

NOTE: "FAIR" INDICATES FEW OR NO CLOUDS BELOW 12,000 FEET WITH NO
SIGNIFICANT WEATHER AND/OR OBSTRUCTIONS TO VISIBILITY.

OHZ001>008-015>018-024>027-034-035-043-044-300700-
   NORTHWEST OHIO

CITY           SKY/WX    TMP DP  RH WIND       PRES   REMARKS
DEFIANCE       MOCLDY    44  33  65 W15G23    29.87R
FINDLAY        PTCLDY    43  36  76 W16G25    29.84R
TOLEDO EXPRESS   N/A    N/A N/A N/A MISG      29.82R
TOLEDO EXEC    CLOUDY    43  33  68 W15G32    29.82R
LIMA           MOCLDY    45  37  73 W23G29    29.87R
$$

OHZ009>014-019>023-028>033-038-089-300700-
   NORTHEAST OHIO

CITY           SKY/WX    TMP DP  RH WIND       PRES   REMARKS
CLE-HOPKINS    CLOUDY    40  36  86 SW13      29.82F
CLE-LAKEFRONT  CLOUDY    41  36  82 S16       29.79F
CUY CO. ARPT   NOT AVBL
LORAIN-ELYRIA  CLOUDY    42  36  79 W24G32    29.81S
ASHTABULA      MIX PCPN  37  33  85 S16G23    29.79F FOG
AKRON-CANTON   LGT RAIN  39  34  82 SW14      29.84F
WOOSTER        NOT AVBL
MANSFIELD      CLOUDY    41  36  82 SW20G28   29.82F
YOUNGSTOWN     CLOUDY    38  32  79 SW15G23   29.82F
$$

OHZ042-051>053-060>062-070>072-077>081-300700-
  SOUTHWEST OHIO

CITY           SKY/WX    TMP DP  RH WIND       PRES   REMARKS
CINC-COVINGTON CLOUDY    47  40  76 SW10G18   29.97R
CINC-LUNKEN    CLOUDY    46  41  82 SW9       29.98S
HAMILTON       CLOUDY    46  40  79 W9        29.96S
DAYTON         NOT AVBL
WRIGHT-PAT AFB NOT AVBL
DAYTON GENERAL CLOUDY    45  39  79 SW12      29.92F
WILMINGTON     LGT RAIN  43  37  79 SW15      29.93S
$$

OHZ036-037-039>041-045>050-054>059-063>069-073>076-082>088-300700-
  CENTRAL AND SOUTHEAST OHIO

CITY           SKY/WX    TMP DP  RH WIND       PRES   REMARKS
COLUMBUS       LGT RAIN  43  36  76 SW14G20   29.90F
OSU AIRPORT    CLOUDY    43  37  79 SW12      29.89F
BOLTON FIELD   NOT AVBL
RICKENBACK AFB NOT AVBL
NEWARK         CLOUDY    42  36  79 SW10      29.89F
MARION         CLOUDY    41  35  79 SW14      29.86S
LANCASTER      CLOUDY    43  35  73 SW13G20   29.91F
ZANESVILLE     CLOUDY    40  33  76 S10       29.90F
NEW PHILLY     CLOUDY    42  34  73 S13G26    29.88F
$$


USA.gov is the U.S. government's official web portal to all federal, state and local government web resources and services.